Погода в Герейхановском

Россия / Республика Дагестан     41°42′04″N   48°16′52″E
темп.,
°C
ветер,
м/с
пор.,
м/с
влажн.,
%
обл.,
%
осадки,
мм/ч
давл.,
гПа
погр.,
м
16 мая, вс
вс1600:00+17зюз22520 0.0 101321
03:00+17зюз22520 0.0 101318
06:00+19юз11553 0.0 101335
09:00+25вюв34340 0.0 1012626
12:00+30вюв55230 0.0 10101599
15:00+30вюв66290 0.0 10081278
18:00+23в23510 0.0 100856
21:00+17з22530 0.0 100816
17 мая, пн
пн1700:00+17юз33410 0.0 100825
03:00+16зюз32350 0.0 100721
06:00+20з114314 0.0 100726
09:00+25в223329 0.0 1006422
12:00+28всв213010 0.0 1005744
15:00+29св32320 0.0 1004627
18:00+24всв005794 0.0 100412
21:00+20юз116054 0.0 100516
18 мая, вт
вт1800:00+21зюз224456 0.0 100422
03:00+17сз11594 0.0 100511
06:00+20св115785 0.0 1008133
09:00+20св3267100 0.0 1009588
12:00+22св446699 0.1 1010886
15:00+22ссв556783 0.7 10111067
18:00+20с127547 0.6 1011311
21:00+16ююз118768 0.7 101215
19 мая, ср
ср1900:00+16з22883 0.0 101214
03:00+16зюз43783 0.0 101232
06:00+18юз33710 0.0 101283
09:00+23всв32530 0.0 10121025
12:00+25всв435213 0.0 10131341
15:00+24св435339 0.0 10141207
18:00+22всв22615 0.0 1016176
21:00+18зюз32723 0.0 101716
20 мая, чт
чт2000:00+18зюз33706 0.0 101825
03:00+18зсз23622 0.0 101914
06:00+20зюз22605 0.0 101974
09:00+24всв21441 0.0 10181026
12:00+27вюв33411 0.0 10151387
15:00+25в54475 0.0 1014699
18:00+22в22610 0.0 1014240
21:00+18зюз11770 0.0 101311